Regional Weather Roundup
Issued by NWS

Home | Current Version | Previous Version | Text Only | Print | Product List | Glossary Off
Versions: 1 2 3 4 5 6 7 8 9 10 11 12 13 14 15 16 17 18 19 20 21 22 23 24 25 26 27 28 29 30 31 32 33 34 35 36 37 38 39 40 41 42 43 44 45 46 47 48 49 50

000
ASUS43 KFSD 261410
RWRSD

WEATHER ROUNDUP FOR SOUTH DAKOTA
NATIONAL WEATHER SERVICE SIOUX FALLS SD
900 AM CDT SUN MAR 26 2017

NOTE: "FAIR" INDICATES FEW OR NO CLOUDS BELOW 12,000 FEET WITH NO
SIGNIFICANT WEATHER AND/OR OBSTRUCTIONS TO VISIBILITY.


SDZ001>005-009-010-012>017-261500-
NORTHWEST AND NORTH CENTRAL SOUTH DAKOTA

CITY           SKY/WX    TMP DP  RH WIND       PRES   REMARKS
BUFFALO          N/A     44  39  82 NE10      29.84R
FAITH            N/A     36  36 100 MISG      29.90R
MOBRIDGE       CLOUDY    40  36  86 CALM      29.91S
$$

SDZ012>016-024>037-041>051-057-063-072>074-261500-
SOUTHWEST AND SOUTH CENTRAL SOUTH DAKOTA

CITY           SKY/WX    TMP DP  RH WIND       PRES   REMARKS
RAPID CTY ARPT CLOUDY    40  36  86 N13       29.88R
PIERRE         CLOUDY    40  38  93 E5        29.91R
CUSTER         CLOUDY    41  33  73 CALM      29.86R
ELLSWORTH AFB  CLOUDY    40  40  99 N15       29.87R
PHILIP         LGT RAIN  39  38  96 E13       29.89R
PINE RIDGE     CLOUDY    46  34  62 N15       29.85R
SPEARFISH      LGT RAIN  39  37  93 NW9       29.91S
WINNER         CLOUDY    40  39  97 SE5       29.90S FOG
$$

SDZ004>011-016>023-039-040-261500-
NORTHEAST SOUTH DAKOTA

CITY           SKY/WX    TMP DP  RH WIND       PRES   REMARKS
ABERDEEN       CLOUDY    36  33  89 E6        29.96R
WATERTOWN      CLOUDY    36  34  92 NE5       29.93S
BROOKINGS      CLOUDY    36  35  96 NE5       29.93R FOG
SISSETON         N/A     36  36 100 CALM      29.96F
$$

SDZ017-020-022-023-036>040-048>070-261500-
SOUTHEAST SOUTH DAKOTA

CITY           SKY/WX    TMP DP  RH WIND       PRES   REMARKS
SIOUX FALLS    DRIZZLE   39  37  92 NE6       29.92S FOG
HURON          CLOUDY    39  38  96 NE6       29.94S
CHAMBERLAIN    CLOUDY    41  40  97 E5        29.92R
MITCHELL       CLOUDY    39  38  96 E6        29.94R FOG
YANKTON        CLOUDY    37  36  93 NE5       29.92R
$$

ABBREVIATIONS USED IN REMARKS
   TC - TEMPERATURE IN CELSIUS
  WCI - WIND CHILL INDEX
   HX - HEAT INDEX
  VSB - VISIBILITY




USA.gov is the U.S. government's official web portal to all federal, state and local government web resources and services.